Henderson, KY

11:42 AM CST on December 05, 2019 (GMT -0600)
Henderson City-County

Weather History for KEHR - October, 2019

Change the Weather History Date:

Thursday, October 17, 2019

  Actual Average Record
Temperature  
Mean Temperature 46 °F -  
Max Temperature 59 °F 68 °F 90 °F (1938)
Min Temperature 33 °F 47 °F 25 °F (1943)
Degree Days  
Heating Degree Days 19    
Moisture  
Dew Point 37 °F    
Average Humidity 80    
Maximum Humidity 100    
Minimum Humidity 42    
Precipitation  
Precipitation 0.00 in - - ()
Sea Level Pressure  
Sea Level Pressure 30.08 in    
Wind  
Wind Speed 3 mph (West)    
Max Wind Speed 9 mph    
Max Gust Speed -    
Visibility 9 miles    
Events      
Averages and records for this station are not official NWS values.
T = Trace of Precipitation, MM = Missing Value Source: NWS Daily Summary

Daily Weather History Graph

Daily Weather History Graph

Search for Another Location

Airport or City:

Astronomy

Oct. 17, 2019 Rise Set
Actual Time 7:00 AM CDT 6:10 PM CDT
Civil Twilight 6:34 AM CDT 6:37 PM CDT
Nautical Twilight 6:03 AM CDT 7:07 PM CDT
Astronomical Twilight 5:33 AM CDT 7:38 PM CDT
Moon 8:45 PM CDT (10/17) 10:29 AM CDT (10/17)
Length of Visible Light 12h 02m
Length of Day
11h 09m
Waning Gibbous, 86% of the Moon is Illuminated
Oct 17
Waning Gibbous
Oct 21
Last Quarter
Oct 27
New
Nov 4
First Quarter
Nov 12
Full

Hourly Weather History & Observations

Time (CDT) Temp. Windchill Dew Point Humidity Pressure Visibility Wind Dir Wind Speed Gust Speed Precip Events Conditions
12:56 AM 37.9 °F 35.5 °F 37.0 °F 97% 30.08 in 10.0 mi WSW 3.5 mph - N/A   Clear
1:56 AM 37.0 °F 34.5 °F 36.0 °F 96% 30.09 in 10.0 mi West 3.5 mph - N/A   Clear
2:56 AM 37.9 °F 35.5 °F 37.0 °F 97% 30.08 in 10.0 mi SW 3.5 mph - N/A   Clear
3:56 AM 35.1 °F - 34.0 °F 96% 30.08 in 10.0 mi Calm Calm - N/A   Clear
4:56 AM 35.1 °F - 35.1 °F 100% 30.08 in 9.0 mi Calm Calm - N/A   Clear
5:33 AM 33.8 °F - 33.8 °F 100% 30.07 in 1.8 mi Calm Calm - N/A   Clear
5:46 AM 33.8 °F 30.8 °F 33.8 °F 100% 30.08 in 3.0 mi SW 3.5 mph - N/A   Clear
5:56 AM 34.0 °F 29.8 °F 33.1 °F 96% 30.09 in 9.0 mi SSW 4.6 mph - N/A   Clear
6:56 AM 33.1 °F 28.7 °F 33.1 °F 100% 30.10 in 10.0 mi SSW 4.6 mph - N/A   Clear
7:56 AM 37.0 °F 33.3 °F 37.0 °F 100% 30.11 in 10.0 mi WSW 4.6 mph - N/A   Clear
8:56 AM 44.1 °F 40.8 °F 39.9 °F 85% 30.12 in 10.0 mi WNW 5.8 mph - N/A   Clear
9:56 AM 48.0 °F - 39.0 °F 71% 30.14 in 10.0 mi WSW 4.6 mph - N/A   Clear
10:56 AM 53.1 °F - 39.9 °F 61% 30.13 in 10.0 mi West 5.8 mph - N/A   Clear
11:56 AM 55.0 °F - 37.0 °F 51% 30.10 in 10.0 mi NNW 8.1 mph - N/A   Mostly Cloudy
12:56 PM 55.9 °F - 37.0 °F 49% 30.08 in 10.0 mi WNW 5.8 mph - N/A   Clear
2:56 PM 59.0 °F - 36.0 °F 42% 30.05 in 10.0 mi NW 9.2 mph - N/A   Clear
3:56 PM 57.9 °F - 36.0 °F 44% 30.04 in 10.0 mi Variable 3.5 mph - N/A   Clear
4:56 PM 57.9 °F - 37.0 °F 46% 30.03 in 10.0 mi NNW 5.8 mph - N/A   Clear
5:56 PM 55.9 °F - 37.9 °F 51% 30.03 in 10.0 mi Calm Calm - N/A   Clear
6:56 PM 46.0 °F - 37.9 °F 73% 30.04 in 10.0 mi Calm Calm - N/A   Clear
7:56 PM 43.0 °F 41.3 °F 39.0 °F 86% 30.05 in 10.0 mi SW 3.5 mph - N/A   Clear
8:56 PM 41.0 °F - 37.9 °F 89% 30.05 in 10.0 mi Calm Calm - N/A   Clear
9:56 PM 39.0 °F - 37.0 °F 93% 30.06 in 10.0 mi Calm Calm - N/A   Clear
10:56 PM 39.0 °F - 37.0 °F 93% 30.05 in 10.0 mi Calm Calm - N/A   Clear
11:56 PM 37.0 °F - 36.0 °F 96% 30.05 in 10.0 mi Calm Calm - N/A   Clear